Theta_e
320 317 316 315 312 312 311 309 309 308 307 309 310 311 311 312 313 314 313 314 314 316 316 315 315 315 313 313 313 313 311 311 304 303 305 306 307 308 308 308 308 308 308
319 318 317 314 312 311 310 309 308 308 307 309 310 312 312 312 313 313 313 314 314 315 316 315 315 314 313 313 313 312 312 311 305 303 303 305 305 305 306 306 305 305 306
317 317 315 312 310 310 310 309 308 307 308 310 311 311 311 311 312 313 313 313 313 314 315 315 314 314 313 312 312 311 309 307 305 303 303 302 302 303 305 305 305 305 306
316 315 314 312 310 310 309 308 308 307 308 310 311 311 311 311 311 312 312 313 313 314 314 315 314 313 313 312 311 310 308 307 305 303 301 301 301 302 304 304 304 304 305
314 313 312 311 309 309 308 308 307 307 308 309 311 311 311 311 311 312 312 313 313 313 314 314 313 313 312 311 311 309 308 307 305 304 302 300 301 302 303 303 304 304 303
313 312 312 310 308 308 308 307 307 307 308 309 310 311 311 310 310 311 312 312 313 313 313 313 313 312 311 311 312 310 310 309 306 305 303 302 303 303 303 303 302 302 303
312 311 310 309 308 307 307 307 307 307 308 309 310 310 310 310 310 310 312 312 312 311 312 312 312 312 311 311 310 309 308 308 309 308 307 306 305 306 305 303 302 303 303
311 310 309 308 307 307 306 306 306 306 307 308 310 310 310 310 310 310 311 311 311 312 311 312 312 311 310 311 310 308 308 308 307 307 307 307 307 306 306 305 304 302 302
309 309 309 308 307 306 306 305 305 306 307 308 308 309 310 310 309 310 311 310 311 311 311 311 311 311 310 310 310 308 308 307 306 306 306 306 307 307 306 305 304 302 301
309 309 308 307 307 306 306 305 305 305 306 307 308 308 309 310 309 309 308 309 309 310 310 310 311 311 310 310 309 309 308 308 307 306 307 307 307 306 306 305 305 304 303
308 308 308 307 307 306 305 305 305 305 305 306 308 308 309 309 309 308 307 307 308 309 309 309 309 310 311 310 310 311 311 309 308 307 307 307 307 306 305 305 304 304 304
308 308 308 307 307 306 306 305 305 305 305 306 307 308 309 309 309 308 307 307 307 308 309 309 310 310 309 309 310 310 310 309 308 307 307 307 307 306 306 305 303 303 303
306 306 306 306 306 306 305 304 304 304 303 304 305 306 308 308 308 308 306 306 307 307 308 309 309 310 310 309 309 309 309 308 308 307 307 308 308 306 304 304 304 304 304
303 303 304 305 305 305 305 305 304 303 302 302 302 302 304 306 307 308 306 305 306 307 307 307 308 308 309 309 308 308 308 308 308 308 309 308 306 306 306 305 304 304 302
299 299 300 302 304 303 304 304 303 303 304 302 302 303 302 302 306 308 307 305 305 306 307 307 307 307 307 307 307 307 307 307 307 307 307 307 306 306 306 305 303 302 301
297 297 298 298 299 301 302 301 302 303 302 303 303 303 303 304 305 306 307 306 304 305 306 306 306 306 306 307 307 306 306 306 306 307 306 305 305 305 305 304 302 301 301
298 297 296 297 298 298 299 299 299 300 301 302 302 302 303 304 304 304 305 305 305 304 305 305 306 306 306 307 307 307 307 307 307 306 305 304 305 304 303 303 301 300 299
297 297 297 296 297 298 298 298 298 298 299 300 301 302 302 302 302 302 303 303 302 304 304 304 304 304 305 306 307 307 307 307 306 305 305 305 304 303 302 301 301 301 299
295 296 296 297 296 296 296 298 298 298 297 298 299 299 300 300 301 301 301 299 298 300 303 304 304 304 304 304 305 305 306 306 306 305 305 305 304 302 302 302 302 300 298
294 294 295 295 295 294 295 295 297 297 297 296 296 297 298 297 296 296 296 296 297 298 301 303 304 304 303 303 303 303 304 304 305 305 305 305 304 303 302 303 301 299 296
293 294 293 293 293 293 293 294 295 296 296 296 296 297 297 296 295 294 294 295 296 296 298 300 301 302 303 303 302 302 302 303 303 303 303 304 304 303 303 302 300 298 296
292 292 292 291 292 292 292 292 293 294 295 295 296 296 297 296 295 294 294 294 295 295 296 298 298 299 301 302 301 300 301 301 301 302 302 303 303 302 301 299 297 296 295
289 290 290 290 291 291 291 292 292 293 294 294 294 295 295 296 295 295 294 294 294 295 297 297 296 297 299 300 300 299 299 299 299 300 301 301 301 300 299 297 296 295 294
288 289 289 290 290 290 290 291 291 292 293 293 294 294 294 295 295 295 295 295 294 294 295 295 295 296 299 299 299 299 299 299 300 300 300 301 300 299 297 296 295 294 293
288 288 289 290 290 290 291 291 291 291 292 292 293 293 294 294 295 295 295 295 295 294 293 294 294 296 298 299 299 299 298 299 299 300 300 300 299 298 296 295 294 293 292
289 289 289 289 290 290 291 291 291 291 291 291 292 293 293 294 294 294 294 294 294 294 293 293 294 295 296 298 298 298 298 298 299 300 299 298 297 295 295 295 293 292 291
Wind_Speed
37 36 36 36 39 39 38 37 35 33 31 31 28 25 23 21 19 17 16 16 18 23 23 27 25 22 28 21 12 12 23 13 17 16 19 15 16 17 15 14 14 14 14
36 35 35 35 37 39 38 38 36 34 32 33 30 26 24 22 21 19 20 18 20 24 25 26 24 23 24 19 15 17 14 16 24 22 19 17 15 14 12 11 12 13 13
34 34 33 34 37 38 39 39 36 35 34 32 31 28 25 23 22 19 21 19 20 23 26 27 25 25 25 20 17 16 13 19 25 23 18 18 14 13 13 12 12 11 11
32 33 34 34 36 39 40 39 37 35 35 33 30 28 26 24 22 21 21 21 20 22 24 25 27 26 28 22 19 18 18 23 24 25 18 17 14 15 13 14 12 12 11
30 31 32 32 35 39 39 39 37 36 36 34 31 28 26 24 24 23 22 23 23 23 23 25 24 25 26 21 22 21 22 24 26 25 19 14 14 16 17 15 13 12 10
28 28 30 34 35 38 40 40 39 37 35 33 31 29 27 25 24 23 23 24 24 25 24 24 23 24 24 19 16 17 18 24 27 23 20 17 19 17 18 16 13 9 5
26 26 29 31 33 36 39 40 39 38 36 34 32 31 29 27 24 24 23 24 26 25 25 27 26 24 24 21 18 17 15 15 15 23 24 23 20 21 20 18 16 12 5
24 27 31 32 33 35 38 36 36 37 37 36 34 32 30 28 27 25 24 24 24 26 25 29 29 28 26 24 22 19 16 14 14 15 13 14 13 15 17 13 12 10 9
22 25 30 33 34 36 34 35 36 35 32 33 34 33 31 29 28 28 26 24 25 25 25 26 28 29 27 24 23 21 19 16 14 12 12 10 9 8 12 14 12 11 3
18 23 28 32 34 34 35 36 37 35 35 34 33 32 31 29 30 29 27 25 24 25 23 23 25 27 27 25 24 21 19 17 16 15 12 10 9 9 9 10 8 10 6
19 22 25 29 29 30 32 33 36 35 35 34 33 31 30 29 33 30 27 26 26 26 25 24 24 26 26 25 22 20 17 14 14 12 11 11 9 9 8 8 7 8 7
20 23 24 26 28 30 34 32 32 34 33 33 32 28 28 28 33 33 28 26 25 26 25 24 23 23 22 22 20 18 16 13 14 14 13 12 11 10 9 9 8 8 7
19 21 22 23 26 30 33 33 32 33 31 30 30 28 30 28 32 33 29 25 24 25 24 23 23 23 21 20 20 19 18 16 15 17 17 16 14 10 10 9 9 9 10
17 17 19 23 24 27 30 34 34 32 29 29 27 23 29 29 29 35 31 27 24 22 23 24 22 21 21 20 20 20 19 18 18 18 18 16 13 12 13 12 12 11 12
13 15 16 19 22 22 24 29 31 31 36 36 35 36 33 29 34 36 38 33 29 25 24 24 25 24 23 22 20 20 21 21 20 18 17 16 15 14 14 13 13 11 10
12 12 15 17 19 20 22 20 20 23 25 27 31 35 34 34 35 33 35 34 30 28 26 25 26 26 25 24 23 21 22 22 20 19 17 14 14 14 15 15 15 13 12
8 12 15 15 18 20 20 21 18 17 19 21 22 25 29 29 29 32 33 34 32 29 30 29 29 27 26 26 25 25 25 23 20 22 20 18 17 16 16 15 14 13 12
3 6 11 15 16 18 20 21 21 21 21 22 20 22 23 25 25 25 31 31 31 34 33 32 31 29 29 28 27 28 27 25 25 23 21 20 20 19 19 18 16 16 14
3 4 6 9 12 15 17 18 20 20 20 21 22 21 20 19 21 22 26 33 31 33 37 36 34 33 32 30 29 28 27 27 25 22 21 21 21 21 21 18 17 17 15
5 4 6 8 9 12 14 16 18 18 20 20 22 24 24 23 23 27 30 33 31 31 38 40 40 38 36 32 31 29 28 26 26 24 22 21 22 22 22 20 20 20 19
7 7 8 8 10 13 14 15 16 17 18 20 21 23 26 30 26 28 32 35 35 33 35 38 41 41 37 34 32 30 30 29 28 28 27 23 22 23 22 21 21 19 18
9 10 11 13 12 13 15 15 15 16 17 18 17 17 19 25 28 28 29 33 36 36 34 36 39 40 38 37 35 33 33 33 32 30 29 27 24 24 23 22 21 20 18
10 11 12 12 13 14 14 15 16 18 16 16 16 17 21 25 27 29 31 32 32 34 34 34 37 37 34 36 35 34 35 36 36 34 31 30 28 26 25 25 24 23 21
9 12 13 13 13 13 13 15 16 15 16 17 17 19 21 25 26 27 28 30 30 30 31 35 35 36 34 34 35 33 31 29 29 31 33 32 30 28 27 26 26 24 23
9 11 13 14 13 14 14 14 14 15 16 17 18 19 21 22 24 25 26 28 28 29 31 32 34 34 32 31 32 32 29 29 28 28 30 30 31 30 29 28 26 24 22
12 11 13 13 14 15 15 15 15 16 17 18 19 20 21 22 22 24 25 27 29 30 30 31 32 32 33 30 28 29 29 28 28 28 29 30 31 31 30 28 26 24 23
Wind_Direction
178 179 179 179 175 180 178 181 180 180 180 178 176 177 171 171 170 172 165 159 153 148 150 147 145 148 147 154 132 144 145 146 125 132 122 123 123 130 127 127 125 120 114
175 176 178 172 171 172 174 179 180 179 180 179 174 178 172 171 171 172 167 166 160 156 156 160 156 152 149 148 145 143 152 153 143 139 138 134 137 145 139 139 129 127 130
170 172 171 168 167 169 173 177 178 177 178 177 174 177 173 173 172 175 171 169 166 164 164 168 166 166 160 156 159 152 152 156 154 149 149 159 150 153 150 145 146 146 152
168 169 169 169 167 168 173 175 174 176 175 175 178 177 176 175 174 174 171 167 167 168 167 169 170 171 168 166 163 156 147 150 159 154 152 163 163 166 170 167 165 171 176
167 169 169 167 163 165 170 172 173 176 177 177 175 177 176 177 176 174 173 170 167 166 167 170 173 177 173 169 160 159 157 155 164 166 162 170 176 175 186 187 190 197 204
168 169 166 161 159 164 168 169 173 174 176 175 175 175 178 179 181 177 175 172 169 164 166 171 175 178 174 170 166 171 172 167 172 174 176 186 192 193 193 198 196 194 225
170 164 159 159 157 162 165 167 170 172 175 176 176 178 180 182 181 178 180 175 173 168 170 174 171 178 173 165 165 169 171 184 194 187 190 196 198 201 203 203 208 212 214
171 162 160 159 159 161 164 165 167 171 175 177 178 180 181 185 182 178 181 178 177 178 177 181 179 175 178 174 169 170 172 178 189 200 205 197 206 217 218 221 217 220 237
173 166 163 162 160 163 164 166 168 168 170 175 182 181 183 185 184 181 183 182 178 179 188 187 187 181 180 182 178 177 175 179 183 184 187 199 210 211 212 207 202 201 232
171 169 164 166 166 166 167 167 172 174 175 181 184 186 188 185 184 184 187 184 183 181 186 192 193 189 187 188 189 187 183 190 191 190 192 193 198 203 200 207 222 205 198
168 167 165 171 168 168 166 169 171 174 178 181 181 185 191 191 184 185 189 191 190 188 187 188 190 192 195 195 200 209 213 209 204 203 197 199 206 212 204 202 206 210 215
171 169 168 173 171 170 171 171 171 173 173 176 177 179 190 193 191 186 191 196 196 197 196 195 193 191 195 196 203 210 216 217 210 205 209 220 226 213 207 205 199 216 228
163 165 164 169 169 173 173 168 168 175 170 172 175 178 185 194 193 191 190 194 200 201 203 204 203 202 201 201 208 214 217 217 215 212 218 228 233 225 207 205 216 226 241
159 162 163 164 165 174 180 178 175 175 173 174 176 177 186 192 193 192 192 195 200 200 200 204 208 209 208 209 207 214 221 222 219 217 221 224 223 214 216 217 222 231 246
153 164 172 174 172 174 184 185 188 191 193 186 192 195 189 192 200 197 196 195 198 198 200 202 198 200 202 206 211 217 216 214 214 216 216 217 220 214 215 218 224 220 227
145 164 176 182 182 178 178 178 195 204 201 209 210 208 207 213 207 204 204 203 198 199 202 201 201 203 204 206 208 209 210 209 209 213 219 220 219 214 212 214 220 220 228
141 163 169 180 187 185 185 182 170 185 199 208 211 220 221 222 218 213 207 207 204 202 212 211 211 210 211 212 214 213 210 212 221 224 224 226 225 220 215 215 217 222 226
154 169 176 178 186 192 195 196 195 188 185 193 202 209 217 221 224 217 212 202 203 210 212 215 216 217 218 217 218 220 221 224 223 228 229 229 228 223 212 213 217 223 227
294 195 190 180 185 193 196 200 203 204 204 203 197 201 210 214 217 217 211 202 199 206 212 216 221 222 222 224 226 229 231 231 229 227 229 231 229 223 221 224 226 224 220
277 256 223 205 178 186 191 199 201 206 206 206 210 206 198 198 195 196 205 206 212 210 212 216 222 225 224 223 225 228 232 232 228 227 232 233 232 226 224 226 223 215 213
257 250 238 217 198 195 194 198 201 209 211 213 214 220 215 203 202 204 206 209 212 215 217 216 222 226 224 224 225 226 229 231 230 230 231 230 224 219 222 228 224 215 209
233 234 224 219 215 207 204 203 202 208 214 216 221 225 226 220 219 219 218 219 220 222 221 221 222 225 222 222 224 224 226 227 228 227 227 228 223 223 221 217 211 203 197
222 209 207 211 209 210 209 210 207 210 214 216 220 223 216 222 227 228 229 229 227 225 223 223 226 227 224 223 223 225 226 229 229 226 225 226 223 218 216 208 200 192 190
223 219 216 214 209 208 211 217 218 219 219 222 221 223 225 229 233 235 238 239 236 227 226 228 228 229 225 221 222 225 228 231 228 223 222 222 218 211 205 198 192 190 186
243 236 234 228 225 222 223 226 226 228 230 230 232 233 236 234 238 242 243 242 240 233 230 229 227 227 228 226 225 220 222 221 220 219 219 217 212 203 195 190 184 184 186
244 237 237 236 237 239 231 230 235 234 233 234 235 237 239 240 241 242 244 242 239 236 231 229 227 228 228 228 219 217 220 219 216 217 213 207 201 191 186 185 184 184 184